Volver al catálogo

SL-16 DEB

ActivoLEO
NORAD 23407·DEBRIS·🇷🇺 Russia

Lanzado Nov 24, 1994 desde Baikonur Cosmodrome

Loading…

Próximos Pases (próximas 24 horas)

TLE

ActualizadoSource: Space-Track

Época: Sep 14, 2026, 14:15 UTC

1 23407U 94077D   26257.59388025  .00000035  00000-0  71437-4 0  9999
2 23407  71.0318 224.6331 0197017 111.2074   6.2672 13.73817449593838

Sigue SL-16 DEB en tiempo real con AllMySat

Download on the App Store